Hourly Data Report for December 12, 2017

All times are specified in Local Standard Time (LST). Add 1 hour to adjust for Daylight Saving Time where and when it is observed.

MONTREAL MIRABEL INTL A
QUEBEC

45°40'50.000" N
74°02'19.000" W
82.30 m
7034900
YMX

Related Data

No related data is available for this station

Download Data

Hourly Data (December 2017)
Hourly Data Report for December 12, 2017
Temp Definition
°C
Dew Point Temp Definition
°C
Rel Hum Definition
%
Wind Dir Definition
10's deg

Wind Spd Definition
km/h
Visibility Definition
km
Stn Press Definition
kPa
Hmdx Definition


Wind Chill Definition


Weather Definition


TIME
00:00 Legend Double Dagger -10.4 -14.1 75 8 14 40.2 100.51   -17 LegendNANA
01:00 Legend Double Dagger -10.9 -14.0 78 4 9 40.2 100.42   -16 Snow
02:00 Legend Double Dagger -11.2 -14.2 79 6 13 16.1 100.38   -18 Snow
03:00 Legend Double Dagger -11.5 -14.8 77 5 16 16.1 100.23   -19 Snow
04:00 Legend Double Dagger -11.7 -14.9 78 5 14 24.1 100.08   -19 Snow,Blowing Snow
05:00 Legend Double Dagger -11.6 -14.3 80 5 13 4.8 99.89   -18 Snow,Blowing Snow
06:00 Legend Double Dagger -11.8 -14.1 83 6 14 3.2 99.82   -19 Snow,Blowing Snow
07:00 Legend Double Dagger -11.8 -13.9 85 5 13 1.6 99.71   -18 Snow,Blowing Snow
08:00 Legend Double Dagger -11.6 -13.7 84 5 13 2.4 99.58   -18 Snow,Blowing Snow
09:00 Legend Double Dagger -11.2 -13.3 85 5 11 1.2 99.52   -17 Snow,Blowing Snow
10:00 Legend Double Dagger -10.8 -12.8 85 4 16 1.0 99.42   -18 Snow,Blowing Snow
11:00 Legend Double Dagger -10.2 -12.3 84 5 13 2.4 99.27   -16 Snow,Blowing Snow
12:00 Legend Double Dagger -9.4 -11.4 86 4 11 3.2 99.09   -15 Snow,Blowing Snow
13:00 Legend Double Dagger -8.7 -10.6 86 3 9 1.0 99.00   -13 Snow,Blowing Snow
14:00 Legend Double Dagger -8.2 -10.2 86 3 11 1.6 98.91   -13 Snow,Blowing Snow
15:00 Legend Double Dagger -7.9 -10.0 85 2 12 2.0 98.83   -13 Snow,Blowing Snow
16:00 Legend Double Dagger -8.0 -9.8 87 3 7 2.4 98.83   -12 Snow,Blowing Snow
17:00 Legend Double Dagger -8.2 -9.9 87 3 10 2.4 98.81   -13 Snow,Blowing Snow
18:00 Legend Double Dagger -7.8 -10.1 84 2 8 9.7 98.77   -12 Snow,Blowing Snow
19:00 Legend Double Dagger -7.7 -10.0 84 2 10 6.4 98.75   -13 Snow,Blowing Snow
20:00 Legend Double Dagger -7.5 -9.7 85 36 3 16.1 98.82   -9 Snow
21:00 Legend Double Dagger -7.5 -9.3 87 28 8 16.1 98.77   -12 Snow
22:00 Legend Double Dagger -7.7 -9.1 90 25 6 6.4 98.74   -11 Snow
23:00 Legend Double Dagger -7.7 -9.1 90 25 6 4.8 98.69   -11 Snow

Notes on Data Quality.

Legend

  • E = Estimated
  • M = Missing
  • NA = Not Available
  • ‡ = Partner data that is not subject to review by the National Climate Archives
Date modified: